Tracking 18945 objects as of 20-Jan-2018
HD Live streaming from Space Station
objects crossing your sky now

FENGYUN 1C DEB

Track FENGYUN 1C DEB now!
10-day predictions


NORAD ID: 37921
Int'l Code: 1999-025ENW
Perigee: 860.7 km
Apogee: 984.5 km
Inclination: 99.3 °
Period: 103.3 minutes
Semi major axis: 7293 km
RCS: 0.0041 m2 (small)
Launch date: May 10, 1999
Source: People's Republic of China (PRC)
Launch site: Taiyaun Space Center, China (TSC)

Note: This is SATELLITE DEBRIS
aabbcc
Your satellite tracking list
Your tracking list is empty




NASA's NSSDC Master Catalog

Two Line Element Set (TLE):
1 37921U 99025ENW 18019.85135102 -.00000078 +00000-0 -23747-4 0  9995
2 37921 099.3461 034.1975 0084814 021.0624 339.3995 13.93767736229629
Source of the keplerian elements: AFSPC